FENGYUN 1C DEB, 31369

Orbit data source: Space-Track

FENGYUN 1C DEB, 31369 is space debris in SSO originally from a launch on Mon, 10 May 1999 UTC launched from the Taiyaun Space Center, China (TSC). Fengyun 1C debris stems from the Chinese weather satellite Fengyun-1C, which was intentionally destroyed by a Chinese anti-satellite missile in 2007. This event dramatically increased the amount of space debris, with thousands of trackable fragments posing hazards to satellites and human spaceflight. The Fengyun 1C debris cloud has become a focal point in discussions about space sustainability and the need for international regulations to prevent the creation of new debris.

Loading next visibility...
Identifier
31369, 1999-025BRZ
Orbit
SSO
Country
Flag of CNCN / PRC
Related business
Manufacturer
Unknown
Mission
Spacecraft
Bus & Motor
Unknown
Mass
Unknown
Launch date (UTC)
1999-05-10 (27 years ago)
Launch vehicle
Unknown
Launch site
Taiyaun Space Center, China (TSC)
Object type
Payload
Rocket body
Debris
Shape & HBR
Unknown shape, 0.1 m
Radar Cross Section
Small (<0.1 m²)

Expand to show TLE details & history
Last TLE update: 5 days ago

TLE from 5 days ago
0 FENGYUN 1C DEB
1 31369U 99025BRZ 26252.17810383  .00000221  00000-0  12327-3 0  9998
2 31369  98.6470 231.7174 0053947 237.8394 182.9537 14.19671459681644
Epoch: 2026-09-09T04:16Z
TLE epoch observation values (Epoch: 2026-09-09T04:16:28.170Z)
Latitude
59.7145°
Longitude
164.35374°
Altitude
875.399 km
Speed
7.4 km/s
True Right ascension
14h 26m 49s
True Declination
59° 34' 01"
Sunlit
Object was in daylight at epoch
Visualization orbit readout
Latitude
Unknown
Longitude
Unknown
Altitude
Unknown
Speed
Unknown
Apparent Right ascension
Unknown
Apparent Declination
Unknown
Sunlit
N/A
Visualization observer readout
Local Sidereal Time
12:36:32
Azimuth
Unknown
Elevation
Unknown
Doppler factor
Unknown
Orbital elements
Apogee altitude
862.471 km
Perigee altitude
784.769 km
Semi-major axis
7,201.757 km
Eccentricity
0.00539
Inclination
98.647°
RAAN
231.7174°
Arg. of periapsis
237.8394°
True anomaly
182.92206°
Mean anomaly
182.9537°
Eccentric anomaly
182.93786°
Mean motion
3.55128 °/min
Orbital period
101.37 mins
BSTAR
0.00012327
Loading maneuver chart data...
Computing Atmospheric mass density...
Loading historical data...
Loading historical data...
Loading historical data...
Loading historical data...
Loading historical data...
Loading historical data...
Loading historical data...

Documentation

Showing up to 5 results
|